Hourly Data Report for September 08, 2017

All times are specified in Local Standard Time (LST). Add 1 hour to adjust for Daylight Saving Time where and when it is observed.

TORONTO INTL A
ONTARIO

43°40'36.000" N
79°37'50.000" W
173.40 m
6158731
71624
YYZ

Download Data

Hourly Data (September 2017)
Hourly Data Report for September 8, 2017
Temp Definition
°C
Dew Point Temp Definition
°C
Rel Hum Definition
%
Wind Dir Definition
10's deg

Wind Spd Definition
km/h
Visibility Definition
km
Stn Press Definition
kPa
Hmdx Definition


Wind Chill Definition


Weather Definition


TIME
00:00 Legend Double Dagger 11.0 9.1 88 26 15 24.1 99.37     LegendNANA
01:00 Legend Double Dagger 11.4 9.4 87 28 17 24.1 99.39     Mostly Cloudy
02:00 Legend Double Dagger 11.3 9.3 88 28 15 24.1 99.43     LegendNANA
03:00 Legend Double Dagger 10.8 8.9 88 27 15 24.1 99.48     LegendNANA
04:00 Legend Double Dagger 11.4 9.1 85 29 21 24.1 99.54     Mostly Cloudy
05:00 Legend Double Dagger 10.7 8.4 85 31 13 24.1 99.58     LegendNANA
06:00 Legend Double Dagger 10.6 8.4 86 32 14 24.1 99.67     LegendNANA
07:00 Legend Double Dagger 11.7 9.1 84 32 15 24.1 99.72     Mostly Cloudy
08:00 Legend Double Dagger 12.9 8.9 77 33 17 24.1 99.80     LegendNANA
09:00 Legend Double Dagger 13.7 9.9 77 34 12 24.1 99.88     LegendNANA
10:00 Legend Double Dagger 15.5 9.2 66 34 15 24.1 99.92     Mostly Cloudy
11:00 Legend Double Dagger 16.1 8.5 60 1 24 24.1 99.95     LegendNANA
12:00 Legend Double Dagger 15.4 10.0 70 32 19 19.3 99.99     Rain Showers
13:00 Legend Double Dagger 17.6 7.7 52 33 21 24.1 100.04     Mostly Cloudy
14:00 Legend Double Dagger 18.1 8.0 51 33 22 24.1 100.06     LegendNANA
15:00 Legend Double Dagger 18.3 7.9 50 1 23 24.1 100.09     LegendNANA
16:00 Legend Double Dagger 17.1 7.4 52 1 23 24.1 100.13     Mostly Cloudy
17:00 Legend Double Dagger 15.4 6.7 56 1 30 24.1 100.20     LegendNANA
18:00 Legend Double Dagger 14.3 6.0 57 36 23 24.1 100.26     LegendNANA
19:00 Legend Double Dagger 13.1 6.6 65 36 28 24.1 100.33     Mainly Clear
20:00 Legend Double Dagger 12.3 7.2 71 35 18 24.1 100.40     LegendNANA
21:00 Legend Double Dagger 11.6 7.6 76 34 16 24.1 100.45     LegendNANA
22:00 Legend Double Dagger 11.0 7.7 80 35 16 24.1 100.51     Clear
23:00 Legend Double Dagger 10.4 7.5 82 36 18 24.1 100.56     LegendNANA

Notes on Data Quality.

Legend

  • E = Estimated
  • M = Missing
  • NA = Not Available
  • ‡ = Partner data that is not subject to review by the National Climate Archives
Date modified: